Location: Ettringen
(48.1054°N, 10.6545°E)
Time: 02:34:06
(UTC+00:00)

Cosmos 1869 - Pass Details

Date: 18 November 2025
Orbit: 453 x 482 km, 82.5° (Epoch: 04 December)

Event Time Altitude Azimuth Distance (km) Brightness Sun altitude
Rises 16:39:46 0° 181° (S) 2,486 6.9 -10.6°
Reaches altitude 10° 16:41:51 10° 178° (S) 1,611 5.9 -11.0°
Maximum altitude 16:45:20 65° 97° (E) 512 2.9 -11.5°
Drops below altitude 10° 16:48:49 10° 15° (NNE) 1,611 5.4 -12.1°
Enters shadow 16:50:29 - 13° (NNE) 2,311 6.2 -12.3°
